Regional Weather Roundup
Issued by NWS Jackson, KY

Home | Current Version | Previous Version | Graphics & Text | Print | Product List | Glossary On
Versions: 1 2 3 4 5 6 7 8 9 10 11 12 13 14 15 16 17 18 19 20 21 22 23 24 25 26 27 28 29 30 31 32 33 34 35 36 37 38 39 40 41 42 43 44 45 46 47 48 49 50
009
ASUS43 KJKL 181210
RWRJKL

EAST KENTUCKY HOURLY WEATHER ROUNDUP
NATIONAL WEATHER SERVICE JACKSON KY
800 AM EDT FRI AUG 18 2017

NOTE: "FAIR" INDICATES FEW OR NO CLOUDS BELOW 12,000 FEET WITH
NO SIGNIFICANT WEATHER AND/OR OBSTRUCTIONS TO VISIBILITY.

* THESE REPORTS ARE NOT UNDER NWS QUALITY CONTROL AND MAY NOT
  REPORT WEATHER SUCH AS PRECIPITATION AND FOG.

KYZ079-080-083-085-087-088-110-112-115-119-120-181300
...EASTERN KENTUCKY...

CITY           SKY/WX    TMP DP  RH WIND       PRES   REMARKS
JACKSON        FOG       72  71  97 CALM      29.95S VSB 1/2
6HR MIN TEMP:  72; 6HR MAX TEMP:  76; 6HR PCP:  0.42;

LONDON         CLOUDY    73  71  93 SW6       29.96S
6HR MIN TEMP:  73; 6HR MAX TEMP:  76;

SOMERSET*      CLOUDY    72  72 100 W3        29.96S
MONTICELLO*    PTSUNNY   74  73  97 NW9       29.97S
6HR MIN TEMP:  72; 6HR MAX TEMP:  77;

WILLIAMSBURG*  CLOUDY    72  72 100 CALM      29.97S
MIDDLESBORO*   CLOUDY    73  73 100 CALM      29.98S
6HR MIN TEMP:  71; 6HR MAX TEMP:  74; 6HR PCP:  0.04;

HARLAN APT*    CLOUDY    72  70  94 CALM      29.99R
PIKE CO APT*   HVY RAIN  71  71 100 S5        29.96R VSB 1/4
BIG SANDY APT* HVY RAIN  73  73 100 W3        29.94S
6HR MIN TEMP:  73; 6HR MAX TEMP:  77;

MOREHEAD APT*  CLOUDY    73  72  94 SW6       29.93S
$$

KYZ035-036-041-042-044-050-067-078-099-181300
...CENTRAL KENTUCKY...

CITY           SKY/WX    TMP DP  RH WIND       PRES   REMARKS
MT STERLING*   CLOUDY    72  72 100 W3        29.93S
FLEMING/MASON* CLOUDY    73  73  99 W5        29.92S FOG
DANVILLE*      PTSUNNY   72  70  94 NW5       29.95R
LEXINGTON      CLOUDY    74  70  87 W8        29.93R
6HR MIN TEMP:  73; 6HR MAX TEMP:  74; 6HR PCP: TRACE;

FRANKFORT      MOSUNNY   74  70  87 W3        29.91R
6HR MIN TEMP:  73; 6HR MAX TEMP:  75;

LOUISVILLE     MOSUNNY   74  71  91 SW6       29.90S
6HR MIN TEMP:  74; 6HR MAX TEMP:  76;

LEBANON*       PTSUNNY   73  73 100 W5        29.94R FOG
GLASGOW*       PTSUNNY   73  73 100 W5        29.96R
BOWLING GREEN  CLEAR     75  73  93 SW5       29.96R
6HR MIN TEMP:  74; 6HR MAX TEMP:  77; 6HR PCP:  0.01;

$$

KYZ091>093-OHZ055-061-077-WVZ005-015-034-035-042-181300
...SOUTHERN OHIO/WEST VIRGINIA...

CITY           SKY/WX    TMP DP  RH WIND       PRES   REMARKS
COVINGTON      MOSUNNY   73  73 100 SW5       29.89S
COLUMBUS       MOSUNNY   74  73  97 SW7       29.84F
DAYTON         MOSUNNY   70  69  97 W9        29.88R
WILMINGTON     PTSUNNY   73  73 100 W7        29.88R FOG
HUNTINGTON     CLOUDY    73  71  93 SW6       29.90S
CHARLESTON     LGT RAIN  75  71  87 SW7       29.91S FOG
PINEVILLE*     CLOUDY    70  69  97 MISG      30.03S
BECKLEY        PTSUNNY   72  68  87 SW10      30.02S
BLUEFIELD      SUNNY     70  66  87 W8        30.06S
LOGAN CO APT*  LGT RAIN  73  72  94 CALM      29.95F
$$

VAZ002-007-008-TNZ017-027-036-066-071-181300
...SOUTHWEST VIRGINIA/EAST TENNESSEE...

CITY           SKY/WX    TMP DP  RH WIND       PRES   REMARKS
WISE*          RAIN      72  72 100 SW7       30.05S
JONESVILLE*    LGT RAIN  72  72 100 CALM      30.01S
ABINGDON*      CLOUDY    75  73  93 W3        30.03F
BRISTOL        CLOUDY    73  72  96 CALM      30.00S
MORRISTOWN*    PTSUNNY   75  72  88 W8        29.99R
SEVIERVILLE*   CLOUDY    77  70  78 W6        29.98R
KNOXVILLE      CLOUDY    75  71  87 SW9       29.98R
LAFOLLETTE*    CLOUDY    73  73 100 CALM      30.01S
OAK RIDGE      CLOUDY    75  73  93 CALM      29.99S
CROSSVILLE     CLOUDY    71  70  96 W6        30.03R
NASHVILLE      MOCLDY    76  72  87 W5        29.98R
$$

...KEY TO REMARKS...
VSB - VISIBILITY IN MILES
WCI - WIND CHILL INDEX
HX  - HEAT INDEX

$$




USA.gov is the U.S. government's official web portal to all federal, state and local government web resources and services.